Mitchell, SD

6:05 PM CDT on October 22, 2019 (GMT -0500)
Mitchell Municipal

Weather History for KMHE - August, 2019

Change the Weather History Date:

Saturday, August 31, 2019

  Actual Average Record
Temperature  
Mean Temperature 61 °F 69 °F  
Max Temperature 64 °F 81 °F 99 °F (1948)
Min Temperature 58 °F 57 °F 40 °F (1974)
Degree Days  
Heating Degree Days 4 1  
Month to date heating degree days 9 6  
Since 1 June heating degree days 25 52  
Since 1 July heating degree days 9 17  
Cooling Degree Days 0 5  
Month to date cooling degree days 214 227  
Year to date cooling degree days 794 745  
Since 1 June cooling degree days 775 705  
Growing Degree Days 10 (Base 50)    
Moisture  
Dew Point 57 °F    
Average Humidity 86    
Maximum Humidity 93    
Minimum Humidity 78    
Precipitation  
Precipitation 0.56 in 0.07 in 0.83 in (2004)
Month to date precipitation 4.12 2.38  
Year to date precipitation 25.04 16.35  
Snow  
Snow 0.00 in - 0.00 in ()
Month to date snowfall 0.0  
Since 1 June snowfall 0.0  
Since 1 July snowfall 0.0  
Snow Depth 0.00 in    
Sea Level Pressure  
Sea Level Pressure 30.16 in    
Wind  
Wind Speed 12 mph (SE)    
Max Wind Speed 20 mph    
Max Gust Speed 30 mph    
Visibility 9 miles    
Events Rain    
T = Trace of Precipitation, MM = Missing Value Source: NWS Daily Summary

Daily Weather History Graph

Daily Weather History Graph

Search for Another Location

Airport or City:

Astronomy

Aug. 31, 2019 Rise Set
Actual Time 6:54 AM CDT 8:09 PM CDT
Civil Twilight 6:24 AM CDT 8:39 PM CDT
Nautical Twilight 5:48 AM CDT 9:15 PM CDT
Astronomical Twilight 5:11 AM CDT 9:52 PM CDT
Moon 8:13 AM CDT (8/31) 9:21 PM CDT (8/31)
Length of Visible Light 14h 14m
Length of Day
13h 15m
New Moon, 3% of the Moon is Illuminated
Aug 31
New Moon
Sep 5
First Quarter
Sep 13
Full
Sep 21
Last Quarter
Sep 28
New

Hourly Weather History & Observations

Time (CDT) Temp. Dew Point Humidity Pressure Visibility Wind Dir Wind Speed Gust Speed Precip Events Conditions
12:53 AM 61.0 °F 57.0 °F 87% 30.22 in 10.0 mi East 6.9 mph - N/A   Overcast
1:53 AM 61.0 °F 55.9 °F 83% 30.21 in 10.0 mi ESE 8.1 mph - N/A   Overcast
2:53 AM 61.0 °F 55.9 °F 83% 30.20 in 10.0 mi SE 6.9 mph - N/A   Overcast
4:53 AM 59.0 °F 55.9 °F 90% 30.19 in 5.0 mi SSE 6.9 mph - 0.03 in Rain Rain
5:53 AM 59.0 °F 55.0 °F 87% 30.20 in 7.0 mi ESE 8.1 mph - 0.10 in Rain Rain
6:53 AM 57.9 °F 55.0 °F 90% 30.21 in 4.0 mi ESE 9.2 mph - 0.17 in Rain Rain
7:53 AM 57.9 °F 55.0 °F 90% 30.20 in 5.0 mi ESE 10.4 mph - 0.11 in Rain Light Rain
8:44 AM 57.9 °F 55.0 °F 90% 30.20 in 7.0 mi SE 15.0 mph 23.0 mph 0.04 in Rain Light Rain
8:53 AM 57.9 °F 55.0 °F 90% 30.20 in 6.0 mi SE 13.8 mph 23.0 mph 0.05 in Rain Light Rain
9:25 AM 57.9 °F 55.0 °F 90% 30.19 in 3.0 mi SE 13.8 mph - 0.05 in Rain Rain
9:33 AM 57.9 °F 55.9 °F 93% 30.19 in 3.0 mi SE 13.8 mph 23.0 mph 0.07 in Rain Rain
9:53 AM 59.0 °F 55.9 °F 90% 30.19 in 10.0 mi SE 15.0 mph 26.5 mph 0.08 in Rain Light Rain
10:24 AM 59.0 °F 55.9 °F 90% 30.20 in 10.0 mi SE 12.7 mph - 0.01 in Rain Light Rain
10:53 AM 60.1 °F 57.0 °F 90% 30.19 in 10.0 mi SE 15.0 mph 21.9 mph 0.01 in   Overcast
11:43 AM 60.1 °F 55.9 °F 86% 30.19 in 10.0 mi SSE 13.8 mph 25.3 mph 0.01 in Rain Light Rain
11:53 AM 60.1 °F 55.9 °F 86% 30.18 in 10.0 mi SE 18.4 mph 25.3 mph 0.01 in Rain Light Rain
12:53 PM 60.1 °F 55.9 °F 86% 30.18 in 10.0 mi SE 16.1 mph 29.9 mph 0.00 in   Overcast
1:53 PM 63.0 °F 57.0 °F 81% 30.16 in 10.0 mi SE 17.3 mph 27.6 mph N/A   Overcast
2:53 PM 63.0 °F 57.9 °F 84% 30.14 in 10.0 mi SE 12.7 mph - N/A   Overcast
3:53 PM 64.0 °F 59.0 °F 84% 30.13 in 10.0 mi SE 10.4 mph - N/A   Overcast
4:43 PM 63.0 °F 60.1 °F 90% 30.13 in 5.0 mi SE 10.4 mph - N/A   Overcast
4:51 PM 62.6 °F 60.8 °F 94% 30.12 in 9.0 mi SE 12.7 mph - N/A   Overcast
4:53 PM 63.0 °F 60.1 °F 90% 30.12 in 10.0 mi SE 11.5 mph - N/A   Overcast
5:28 PM 63.0 °F 59.0 °F 87% 30.12 in 10.0 mi ESE 12.7 mph - N/A   Overcast
5:53 PM 63.0 °F 59.0 °F 87% 30.12 in 10.0 mi SE 11.5 mph - N/A   Overcast
6:27 PM 63.0 °F 57.9 °F 84% 30.12 in 10.0 mi SE 15.0 mph - N/A   Overcast
6:42 PM 63.0 °F 57.9 °F 84% 30.12 in 10.0 mi ESE 16.1 mph 21.9 mph N/A   Overcast
6:53 PM 63.0 °F 57.0 °F 81% 30.12 in 10.0 mi SE 13.8 mph - N/A   Overcast
7:02 PM 63.0 °F 57.0 °F 81% 30.12 in 10.0 mi SE 11.5 mph - N/A   Overcast
7:53 PM 62.1 °F 57.0 °F 84% 30.11 in 10.0 mi ESE 10.4 mph - N/A   Overcast
8:53 PM 62.1 °F 57.0 °F 84% 30.11 in 10.0 mi SE 12.7 mph - N/A   Overcast
9:53 PM 62.1 °F 55.9 °F 80% 30.12 in 10.0 mi SE 11.5 mph - N/A   Overcast
10:15 PM 62.1 °F 55.9 °F 80% 30.12 in 10.0 mi SE 11.5 mph - N/A   Overcast
10:22 PM 62.1 °F 55.9 °F 80% 30.12 in 10.0 mi SSE 11.5 mph - N/A   Overcast
10:32 PM 62.1 °F 55.9 °F 80% 30.12 in 10.0 mi SSE 11.5 mph - N/A   Overcast
10:53 PM 62.1 °F 55.9 °F 80% 30.12 in 10.0 mi SE 10.4 mph 18.4 mph N/A   Overcast
11:53 PM 61.0 °F 55.0 °F 81% 30.11 in 10.0 mi SSE 16.1 mph 21.9 mph N/A   Mostly Cloudy